Location: *
(34.6903°N, 135.5184°E)
Time: 22:01:05
(UTC+00:00)

Cosmos 2026 Rocket - Pass Details

Date: 22 September 2019
Orbit: 940 x 1001 km, 82.9° (Epoch: 15 October)

Event Time Altitude Azimuth Distance (km) Brightness Sun altitude
Exits shadow 18:12:43 79° 54° (NE) 1,010 4.0 -31.4°
Drops below altitude 10° 18:18:48 10° 8° (N) 2,769 6.7 -30.2°
Sets 18:21:21 0° 8° (N) 3,726 7.4 -29.8°
